[[{"header":{"parameterUnit":"m.s-1","parameterCategory":1,"la1":30.2991,"la2":30.254,"lo1":-89.0895,"lo2":-89.0444,"dy":0.0017,"dx":0.0017,"nx":28,"ny":28,"refTime":"2025-01-16T09:00:00:Z","depth":0,"parameterNumber":2,"parameterNumberName":"U-component_of_WINDS"},"data":[0,0,0,0,0,0,0,0,0,0,0,0,0,0,0,0,0,0,0,0,0,0,0,0,0,0,0,0,0,0,0,0,0,0,0,0,0,0,0,0,0,0,0,0,0,0,0,0,0,0,0,0,0,0,0,0,0,0,2.1925,2.1926,0,2.1969,2.197,2.197,2.1942,2.1941,2.1939,2.1938,2.1983,2.1985,2.1988,0,0,0,0,0,0,0,0,0,0,0,0,0,2.1817,2.1819,2.1925,2.1926,2.1926,2.1969,2.197,2.197,2.1942,2.194,2.1939,2.1937,2.1982,2.1985,2.1988,0,0,0,0,0,0,0,0,0,0,0,0,0,2.1863,2.182,2.1925,2.1917,2.1917,2.1969,2.197,2.197,2.1942,2.194,2.1938,2.1937,2.1981,2.1985,2.1988,2.205,0,0,2.1999,2.2001,0,0,0,0,0,0,0,0,2.186,2.1867,2.1918,2.1918,2.1918,2.1948,2.1948,2.1997,2.1943,2.1933,2.1938,2.1936,2.1973,2.1977,2.199,2.2052,2.2054,2.2,2.2002,2.2003,2.2004,0,0,0,0,0,0,0,2.1857,2.1865,2.1943,2.1919,2.1919,2.1912,2.1916,2.1957,2.1963,2.1934,2.1932,2.1937,2.1972,2.1986,2.199,2.2055,2.2,2.2003,2.2005,2.2006,2.217,2.2172,0,0,0,0,0,0,2.1855,2.1862,2.1941,2.1944,2.1884,2.1915,2.192,2.194,2.1963,2.1964,2.1939,2.1936,2.1981,2.1986,2.1992,2.2066,2.2003,2.2007,2.2009,2.2168,2.2171,2.2173,0,0,0,0,0,0,2.1852,2.1862,2.1939,2.1903,2.1912,2.1919,2.1942,2.1942,2.1956,2.1967,2.1968,2.1952,2.198,2.1987,2.2036,2.2067,2.2008,2.2012,2.2166,2.2169,2.2172,2.2215,0,0,0,0,0,0,2.1849,2.1861,2.1885,2.1903,2.1914,2.1983,2.1944,2.1944,2.1962,2.1959,2.1979,2.1981,2.1979,2.2031,2.2039,2.2071,2.2015,2.2163,2.2167,2.2171,2.221,2.2219,2.2226,0,0,0,0,0,2.1846,2.1895,2.1886,2.1896,2.1944,2.1985,2.1991,2.1987,2.1965,2.1989,2.1996,2.198,2.2062,2.2036,2.2046,2.2079,2.2161,2.2166,2.2171,2.2207,2.2217,2.2226,0,0,0,0,0,0,2.188,2.1897,2.1888,2.1944,2.1963,2.198,2.201,2.1998,2.2024,2.2019,2.2014,2.2019,2.207,2.2079,2.205,2.214,2.2108,2.2115,2.2132,2.2142,2.215,2.2147,2.2018,0,0,0,0,0,2.1894,2.1926,2.1939,2.1988,2.1998,2.2002,2.202,2.2016,2.2035,2.2043,2.2053,2.2073,2.2103,2.2123,2.2151,2.2211,2.2216,2.2239,2.2247,2.2253,2.226,2.2292,2.2303,2.2189,2.2189,2.2189,0,0,2.1924,2.1937,2.1958,2.1995,2.201,2.2043,2.2009,2.2046,2.207,2.2048,2.2096,2.2104,2.2125,2.218,2.2205,2.2189,2.2292,2.226,2.2265,2.2268,2.2299,2.2309,2.2319,2.2193,2.2192,2.2192,0,0,2.1995,2.2008,2.205,2.2065,2.2087,2.2089,2.21,2.2118,2.2123,2.217,2.2154,2.2183,2.2235,2.2251,2.2266,2.2343,2.233,2.2353,2.2394,2.2426,2.2435,2.2443,2.2471,2.2481,2.2359,2.2359,2.2359,0,2.2029,2.2079,2.2074,2.2112,2.2129,2.211,2.2153,2.2168,2.2198,2.221,2.2192,2.2257,2.227,2.2329,2.2348,2.236,2.2372,2.235,2.2434,2.2442,2.2449,2.2476,2.2486,2.2361,2.2361,2.2361,2.2361,0,2.212,2.2154,2.2186,2.2215,2.2236,2.2276,2.2277,2.2299,2.2293,2.2297,2.2346,2.236,2.2392,2.2405,2.2399,2.2463,2.2453,2.2435,2.2402,2.2463,2.2488,2.2498,2.2365,2.2364,2.2364,2.2363,0,0,2.2214,2.224,2.2252,2.2265,2.2288,2.2314,2.2354,2.2384,2.2403,2.2424,2.2457,2.2502,2.2485,2.2502,2.2498,2.2526,2.2587,2.2504,2.2505,2.2519,2.2658,2.2672,2.2684,2.2578,2.258,2.2581,2.2656,0,2.2287,2.2356,2.2352,2.2417,2.2449,2.2432,2.2466,2.2484,2.2489,2.2517,2.2522,2.2554,2.2529,2.2539,2.2566,2.2574,2.2614,2.2568,2.2609,2.261,2.2604,2.2697,2.2711,2.2782,2.2666,2.2668,2.2669,0,2.2381,2.2406,2.2473,2.2491,2.2505,2.2536,2.2563,2.259,2.261,2.2611,2.263,2.2622,2.2662,2.2628,2.2683,2.2652,2.2668,2.2674,2.2677,2.2681,2.2643,2.2703,2.2804,2.2815,2.2684,2.2683,2.2682,0,2.2444,2.2494,2.2541,2.2553,2.2575,2.2597,2.2607,2.2624,2.2643,2.2667,2.2679,2.2708,2.2724,2.2746,2.2745,2.2721,2.2801,2.2768,2.2804,2.2804,2.2822,2.2821,2.2927,2.2832,2.2832,2.2831,2.2831,0,2.2526,2.2568,2.2569,2.2598,2.2645,2.2641,2.2687,2.2695,2.2711,2.2741,2.2728,2.2756,2.2754,2.2782,2.2782,2.2828,2.2835,2.2838,2.2837,2.2839,2.2839,2.285,2.2845,2.2834,2.2834,2.2833,2.2833,0,2.2604,2.2607,2.2657,2.2673,2.2679,2.2712,2.2727,2.2754,2.2758,2.2796,2.2805,2.2811,2.2845,2.2846,2.2884,2.2884,2.294,2.2934,2.2933,2.2932,2.2969,2.2965,2.3086,2.3102,2.2996,2.2997,2.2998,0,2.2657,2.2689,2.2709,2.2728,2.274,2.2771,2.279,2.2787,2.2807,2.2832,2.2856,2.2888,2.2914,2.2968,2.2976,2.3005,2.3,2.304,2.3004,2.3005,2.3001,2.2999,2.3002,2.3047,2.3048,2.3049,2.305,0,2.275,2.2749,2.2777,2.2805,2.2828,2.285,2.2871,2.2887,2.2887,2.291,2.2944,2.2964,2.3003,2.3035,2.3063,2.3074,2.3062,2.3061,2.3071,2.3074,2.3072,2.3074,2.2953,2.3058,2.3058,2.3057,2.3057,2.3056,2.2817,2.2845,2.2863,2.2895,2.291,2.2929,2.2956,2.2963,2.2991,2.3023,2.3019,2.3057,2.3076,2.3113,2.3125,2.3155,2.3141,2.3156,2.3159,2.3163,2.3167,2.3067,2.316,2.316,2.316,2.3159,2.3159,0,2.291,2.2921,2.295,2.2979,2.3003,2.299,2.3012,2.3033,2.3067,2.3085,2.311,2.315,2.3181,2.3191,2.3221,2.3243,2.3238,2.3251,2.3249,2.3252,2.3178,2.3166,2.3254,2.3254,2.3254,2.3254,2.3254,2.3254,2.2961,2.3007,2.3009,2.3063,2.3073,2.311,2.3124,2.3142,2.3156,2.3201,2.3226,2.3233,2.3248,2.3279,2.3307,2.3309,2.3321,2.3336,2.3336,2.3267,2.3257,2.3248,2.3237,2.3339,2.3339,2.3408,2.3409,2.3409]},{"header":{"parameterUnit":"m.s-1","parameterCategory":1,"la1":30.2991,"la2":30.254,"lo1":-89.0895,"lo2":-89.0444,"dy":0.0017,"dx":0.0017,"nx":28,"ny":28,"refTime":"2025-01-16T09:00:00:Z","depth":0,"parameterNumber":3,"parameterNumberName":"V-component_of_WINDS"},"data":[0,0,0,0,0,0,0,0,0,0,0,0,0,0,0,0,0,0,0,0,0,0,0,0,0,0,0,0,0,0,0,0,0,0,0,0,0,0,0,0,0,0,0,0,0,0,0,0,0,0,0,0,0,0,0,0,0,0,-0.747,-0.747,0,-0.7518,-0.7519,-0.7519,-0.7531,-0.7531,-0.753,-0.753,-0.758,-0.7581,-0.7583,0,0,0,0,0,0,0,0,0,0,0,0,0,-0.7388,-0.739,-0.747,-0.747,-0.7471,-0.7518,-0.7519,-0.7519,-0.7531,-0.7531,-0.753,-0.753,-0.7579,-0.7581,-0.7583,0,0,0,0,0,0,0,0,0,0,0,0,0,-0.7429,-0.739,-0.7469,-0.7482,-0.7484,-0.7518,-0.7519,-0.7519,-0.7531,-0.7531,-0.753,-0.753,-0.7578,-0.7581,-0.7583,-0.7607,0,0,-0.759,-0.7591,0,0,0,0,0,0,0,0,-0.7426,-0.7432,-0.748,-0.7482,-0.7483,-0.7518,-0.7508,-0.7549,-0.7531,-0.7513,-0.753,-0.753,-0.7559,-0.7563,-0.7573,-0.761,-0.7612,-0.7591,-0.7592,-0.7593,-0.7594,0,0,0,0,0,0,0,-0.7424,-0.743,-0.7489,-0.7481,-0.7483,-0.7486,-0.7491,-0.7516,-0.7538,-0.7515,-0.7516,-0.7521,-0.756,-0.7571,-0.7575,-0.7612,-0.7591,-0.7593,-0.7594,-0.7595,-0.7672,-0.7673,0,0,0,0,0,0,-0.7418,-0.7427,-0.7487,-0.749,-0.7453,-0.7488,-0.7494,-0.7507,-0.7538,-0.7542,-0.7522,-0.7522,-0.7567,-0.7572,-0.7576,-0.7608,-0.7593,-0.7595,-0.7597,-0.7672,-0.7672,-0.7673,0,0,0,0,0,0,-0.7417,-0.7424,-0.7485,-0.7459,-0.7467,-0.749,-0.7505,-0.7509,-0.7519,-0.7543,-0.7547,-0.7529,-0.7567,-0.7573,-0.76,-0.7609,-0.7596,-0.7599,-0.7671,-0.7672,-0.7673,-0.7669,0,0,0,0,0,0,-0.7414,-0.7423,-0.7432,-0.7459,-0.7468,-0.7508,-0.7506,-0.751,-0.7524,-0.7524,-0.7551,-0.7555,-0.7567,-0.7596,-0.7602,-0.7613,-0.7601,-0.767,-0.7671,-0.7672,-0.7669,-0.767,-0.7671,0,0,0,0,0,-0.7411,-0.7429,-0.7433,-0.744,-0.748,-0.7508,-0.7513,-0.7527,-0.7524,-0.7534,-0.755,-0.7554,-0.7607,-0.7599,-0.7606,-0.7617,-0.767,-0.7671,-0.7672,-0.7668,-0.767,-0.7671,0,0,0,0,0,0,-0.7402,-0.7433,-0.7437,-0.7464,-0.7483,-0.751,-0.7522,-0.7528,-0.7549,-0.7548,-0.7565,-0.7571,-0.7597,-0.7609,-0.7599,-0.7643,-0.7639,-0.7641,-0.7633,-0.7635,-0.7636,-0.7632,-0.7603,0,0,0,0,0,-0.7403,-0.7423,-0.7449,-0.747,-0.748,-0.7499,-0.7512,-0.7521,-0.7542,-0.755,-0.7568,-0.7587,-0.7609,-0.7623,-0.7644,-0.7671,-0.7677,-0.7682,-0.7683,-0.7684,-0.7686,-0.7703,-0.7705,-0.7677,-0.7677,-0.7677,0,0,-0.7406,-0.7425,-0.7436,-0.7469,-0.7485,-0.7505,-0.7506,-0.7528,-0.7543,-0.7553,-0.758,-0.7593,-0.7617,-0.7644,-0.7657,-0.7656,-0.7696,-0.7686,-0.7686,-0.7688,-0.7704,-0.7707,-0.7709,-0.7678,-0.7678,-0.7678,0,0,-0.7421,-0.7437,-0.7457,-0.7474,-0.7498,-0.7511,-0.7516,-0.7542,-0.7552,-0.7579,-0.7587,-0.7606,-0.7642,-0.7659,-0.7672,-0.7695,-0.77,-0.7701,-0.7708,-0.7723,-0.7726,-0.7728,-0.7736,-0.7739,-0.7703,-0.7703,-0.7703,0,-0.7421,-0.7452,-0.7467,-0.7488,-0.7502,-0.7513,-0.7534,-0.7549,-0.7579,-0.7589,-0.7587,-0.7633,-0.765,-0.7682,-0.7687,-0.7698,-0.7704,-0.7698,-0.7724,-0.7726,-0.7728,-0.7737,-0.774,-0.7703,-0.7703,-0.7703,-0.7703,0,-0.7451,-0.7473,-0.7486,-0.7515,-0.7531,-0.7552,-0.757,-0.7584,-0.7592,-0.7606,-0.7634,-0.7654,-0.768,-0.7688,-0.7696,-0.7721,-0.772,-0.7721,-0.7717,-0.7731,-0.7739,-0.7743,-0.7703,-0.7703,-0.7703,-0.7703,0,0,-0.7461,-0.7499,-0.7504,-0.7518,-0.7546,-0.7563,-0.7585,-0.761,-0.7622,-0.7643,-0.7662,-0.7693,-0.7695,-0.771,-0.772,-0.7733,-0.7751,-0.7733,-0.7734,-0.7736,-0.7781,-0.7781,-0.7784,-0.7755,-0.7755,-0.7756,-0.778,0,-0.748,-0.7519,-0.7534,-0.7566,-0.7586,-0.7597,-0.7616,-0.7636,-0.7649,-0.7669,-0.7684,-0.7706,-0.7706,-0.7715,-0.7729,-0.7746,-0.776,-0.7744,-0.7773,-0.7774,-0.7767,-0.7788,-0.7787,-0.7808,-0.7783,-0.7783,-0.7784,0,-0.7507,-0.7529,-0.7563,-0.759,-0.7599,-0.7616,-0.7641,-0.7659,-0.7682,-0.7691,-0.7708,-0.7718,-0.7741,-0.7736,-0.777,-0.7759,-0.7771,-0.7781,-0.7782,-0.7786,-0.778,-0.7792,-0.7815,-0.7819,-0.7789,-0.7788,-0.7788,0,-0.7511,-0.7549,-0.7575,-0.7586,-0.7618,-0.763,-0.7643,-0.7666,-0.7681,-0.7703,-0.7713,-0.7737,-0.775,-0.7769,-0.7785,-0.778,-0.7817,-0.7813,-0.7826,-0.7825,-0.7833,-0.7832,-0.7859,-0.7841,-0.7841,-0.7841,-0.784,0,-0.7531,-0.7552,-0.7577,-0.7593,-0.7617,-0.7633,-0.7657,-0.7671,-0.7691,-0.771,-0.7721,-0.7739,-0.7759,-0.778,-0.7792,-0.7818,-0.7824,-0.7833,-0.7836,-0.7832,-0.7831,-0.784,-0.7839,-0.7841,-0.7841,-0.7841,-0.7841,0,-0.754,-0.7558,-0.7586,-0.7615,-0.7622,-0.7638,-0.7663,-0.7679,-0.7693,-0.7717,-0.7724,-0.7747,-0.7771,-0.7789,-0.7821,-0.783,-0.7858,-0.7861,-0.785,-0.7852,-0.7864,-0.7862,-0.7897,-0.7903,-0.7881,-0.7881,-0.7881,0,-0.7551,-0.7567,-0.7598,-0.7611,-0.7625,-0.7647,-0.7662,-0.768,-0.7695,-0.7723,-0.7736,-0.7762,-0.7783,-0.7823,-0.7842,-0.7867,-0.7871,-0.7882,-0.7875,-0.7871,-0.7872,-0.7871,-0.7873,-0.7882,-0.7883,-0.7883,-0.7883,0,-0.757,-0.7578,-0.76,-0.7625,-0.7643,-0.7663,-0.7684,-0.7695,-0.7716,-0.7733,-0.7759,-0.7775,-0.7808,-0.7834,-0.7861,-0.7876,-0.7883,-0.7885,-0.7889,-0.7885,-0.7879,-0.7883,-0.7853,-0.7884,-0.7884,-0.7884,-0.7884,-0.7884,-0.7581,-0.7596,-0.762,-0.7644,-0.7661,-0.7681,-0.7697,-0.7714,-0.7736,-0.7764,-0.7773,-0.78,-0.7824,-0.7861,-0.7876,-0.7898,-0.7897,-0.7903,-0.7905,-0.7906,-0.7906,-0.7875,-0.7903,-0.7903,-0.7903,-0.7903,-0.7903,0,-0.76,-0.7616,-0.7638,-0.7667,-0.7686,-0.7692,-0.7715,-0.7731,-0.7754,-0.7776,-0.7797,-0.7827,-0.7853,-0.7874,-0.7901,-0.7914,-0.7918,-0.792,-0.792,-0.7923,-0.7905,-0.7899,-0.7917,-0.7917,-0.7917,-0.7917,-0.7917,-0.7917,-0.7613,-0.7639,-0.765,-0.7686,-0.7702,-0.7729,-0.7742,-0.776,-0.7777,-0.781,-0.7832,-0.7846,-0.7868,-0.7896,-0.792,-0.7926,-0.7935,-0.7937,-0.7943,-0.7926,-0.7924,-0.7923,-0.7917,-0.7938,-0.7938,-0.796,-0.796,-0.796]}]]